SCP
0 0 0 0 0 0 0 0 0 0 0 0 0 0 0 0 0 0 0 0 0 0
0 0 0 0 0 0 0 0 0 0 0 0 0 0 0 0 0 0 0 0 0 0
0 0 0 0 0 0 0 0 0 0 0 0 0 0 0 0 0 0 0 0 0 0
0 0 0 0 0 0 0 0 0 0 0 0 0 0 0 0 0 0 0 0 0 0
0 0 0 0 0 0 0 0 0 0 0 0 0 0 0 0 0 0 0 0 0 0
0 0 0 0 0 0 0 0 0 0 0 0 0 0 0 0 0 0 0 0 0 0
0 0 0 0 0 0 0 0 0 0 0 0 0 0 0 0 0 0 0 0 0 0
0 0 0 0 0 0 0 0 0 0 0 0 0 0 0 0 0 0 0 0 0 0
0 0 0 0 0 0 0 0 0 0 0 0 0 0 0 0 0 0 0 0 0 0
0 0 0 0 0 0 0 0 0 0 0 0 0 0 0 0 0 0 0 0 0 0
0 0 0 0 0 0 0 0 0 0 0 0 0 0 0 0 0 0 0 0 0 0
0 0 0 0 0 0 0 0 0 0 0 0 0 0 0 0 0 0 0 0 0 0
0 0 0 0 0 0 0 0 0 0 0 0 0 0 0 0 0 0 0 0 0 0
0 0 0 0 0 0 0 0 0 0 0 0 0 0 0 0 0 0 0 0 0 0
Wind_Speed_500mb
114 116 120 120 114 109 108 105 102 107 108 104 101 100 97 94 91 89 86 85 82 78
114 116 120 119 120 116 108 100 102 105 108 106 104 102 102 100 97 93 89 87 85 80
109 113 120 117 121 120 112 108 104 97 103 106 103 101 103 103 99 98 94 89 88 83
110 105 111 121 122 121 115 113 111 101 100 99 97 97 102 103 99 102 97 93 92 85
99 104 101 116 122 116 114 114 113 105 102 95 93 91 94 95 99 102 99 96 94 88
97 99 104 103 114 115 111 113 112 108 106 98 90 91 90 90 91 95 94 94 92 87
95 94 97 99 104 109 108 109 113 108 103 97 92 91 88 88 87 88 88 87 85 82
85 85 92 88 98 97 102 105 106 103 101 94 91 90 89 86 85 86 85 82 81 79
73 75 84 83 86 95 96 102 101 102 97 92 86 87 88 85 83 84 82 78 78 79
75 67 77 73 79 86 92 90 90 93 93 89 84 83 82 82 81 80 77 76 78 80
68 59 58 61 71 81 80 83 81 83 87 82 80 76 76 79 81 79 78 85 83 82
66 68 56 50 60 69 71 76 78 81 80 73 75 71 70 74 79 85 76 81 83 74
65 67 55 50 53 54 59 64 64 65 66 65 65 66 72 77 75 83 78 67 75 57
54 51 49 48 55 51 56 59 64 67 70 69 66 70 72 71 59 60 63 62 55 56
Wind_Direction_500mb
248 245 242 242 242 243 245 244 241 239 238 237 237 238 238 238 240 240 240 242 242 244
249 245 245 243 242 243 245 247 245 241 240 239 237 238 239 239 240 240 240 241 244 244
252 248 246 246 243 244 245 246 246 245 242 240 238 239 239 240 240 241 241 241 243 243
250 249 248 246 246 244 246 246 247 246 244 241 239 237 238 240 240 241 241 241 242 243
256 250 249 246 244 246 247 247 247 247 245 242 238 236 237 238 238 239 239 239 241 241
254 251 250 248 248 247 249 247 247 246 245 242 238 235 235 236 237 238 238 238 240 240
257 254 252 249 246 246 246 245 244 245 245 243 238 235 234 235 235 235 236 237 238 238
259 255 250 248 251 247 245 246 245 245 244 242 239 235 233 233 234 234 234 235 235 233
253 251 248 246 247 248 245 244 243 246 244 241 238 235 232 232 233 232 233 233 232 233
248 246 245 249 249 247 246 243 243 245 244 241 237 233 231 229 230 232 232 232 232 237
247 243 245 246 250 249 246 244 243 245 243 239 235 230 228 226 228 229 233 235 233 241
244 241 238 244 247 247 247 245 239 238 237 232 233 225 222 222 227 231 232 242 233 242
246 239 240 249 244 243 242 241 237 234 232 228 226 223 221 223 224 231 229 227 238 214
242 236 227 234 237 235 232 229 227 222 221 220 220 223 226 221 223 224 227 213 217 222
Wind_Speed_850mb
114 116 120 120 114 109 108 105 102 107 108 104 101 100 97 94 91 89 86 85 82 78
114 116 120 119 120 116 108 100 102 105 108 106 104 102 102 100 97 93 89 87 85 80
109 113 120 117 121 120 112 108 104 97 103 106 103 101 103 103 99 98 94 89 88 83
110 105 111 121 122 121 115 113 111 101 100 99 97 97 102 103 99 102 97 93 92 85
99 104 101 116 122 116 114 114 113 105 102 95 93 91 94 95 99 102 99 96 94 88
97 99 104 103 114 115 111 113 112 108 106 98 90 91 90 90 91 95 94 94 92 87
95 94 97 99 104 109 108 109 113 108 103 97 92 91 88 88 87 88 88 87 85 82
85 85 92 88 98 97 102 105 106 103 101 94 91 90 89 86 85 86 85 82 81 79
73 75 84 83 86 95 96 102 101 102 97 92 86 87 88 85 83 84 82 78 78 79
75 67 77 73 79 86 92 90 90 93 93 89 84 83 82 82 81 80 77 76 78 80
68 59 58 61 71 81 80 83 81 83 87 82 80 76 76 79 81 79 78 85 83 82
66 68 56 50 60 69 71 76 78 81 80 73 75 71 70 74 79 85 76 81 83 74
65 67 55 50 53 54 59 64 64 65 66 65 65 66 72 77 75 83 78 67 75 57
54 51 49 48 55 51 56 59 64 67 70 69 66 70 72 71 59 60 63 62 55 56
Wind_Direction_850mb
248 245 242 242 242 243 245 244 241 239 238 237 237 238 238 238 240 240 240 242 242 244
249 245 245 243 242 243 245 247 245 241 240 239 237 238 239 239 240 240 240 241 244 244
252 248 246 246 243 244 245 246 246 245 242 240 238 239 239 240 240 241 241 241 243 243
250 249 248 246 246 244 246 246 247 246 244 241 239 237 238 240 240 241 241 241 242 243
256 250 249 246 244 246 247 247 247 247 245 242 238 236 237 238 238 239 239 239 241 241
254 251 250 248 248 247 249 247 247 246 245 242 238 235 235 236 237 238 238 238 240 240
257 254 252 249 246 246 246 245 244 245 245 243 238 235 234 235 235 235 236 237 238 238
259 255 250 248 251 247 245 246 245 245 244 242 239 235 233 233 234 234 234 235 235 233
253 251 248 246 247 248 245 244 243 246 244 241 238 235 232 232 233 232 233 233 232 233
248 246 245 249 249 247 246 243 243 245 244 241 237 233 231 229 230 232 232 232 232 237
247 243 245 246 250 249 246 244 243 245 243 239 235 230 228 226 228 229 233 235 233 241
244 241 238 244 247 247 247 245 239 238 237 232 233 225 222 222 227 231 232 242 233 242
246 239 240 249 244 243 242 241 237 234 232 228 226 223 221 223 224 231 229 227 238 214
242 236 227 234 237 235 232 229 227 222 221 220 220 223 226 221 223 224 227 213 217 222